This is the latest recevied weather packets stored in our database for station/object W9GWP. If no packets are shown the sender has not sent any weather packets the latest 10 day(s).
| Time | Temp. | Humidity | Pressure | Rain* | Wind** | Luminosity | Snow |
|---|---|---|---|---|---|---|---|
| 1777549862 | 3.89° C | 97% | 1045.9 hPa | 0 mm | - | 38 W/m² | - |
| 1777548963 | 3.33° C | 98% | 1045.8 hPa | 0 mm | - | 28 W/m² | - |
| 1777548060 | 1.67° C | 98% | 1045.6 hPa | 0 mm | - | 15 W/m² | - |
| 1777547155 | 1.11° C | 98% | 1045.8 hPa | 0 mm | - | 6 W/m² | - |
| 1777546252 | 1.11° C | 98% | 1046 hPa | 0 mm | - | 0 W/m² | - |
| 1777545348 | 1.11° C | 98% | 1045.7 hPa | 0 mm | - | 0 W/m² | - |
| 1777544443 | 1.11° C | 98% | 1045.5 hPa | 0 mm | - | 0 W/m² | - |
| 1777543540 | 1.67° C | 98% | 1045.6 hPa | 0 mm | - | 0 W/m² | - |
| 1777542640 | 1.11° C | 98% | 1045.7 hPa | 0 mm | - | 0 W/m² | - |
| 1777541737 | 1.11° C | 98% | 1045.6 hPa | 0 mm | - | 0 W/m² | - |
| 1777540832 | 1.67° C | 98% | 1045.5 hPa | 0 mm | - | 0 W/m² | - |
| 1777539932 | 1.67° C | 98% | 1045.7 hPa | 0 mm | - | 0 W/m² | - |
| 1777539028 | 2.22° C | 98% | 1045.5 hPa | 0 mm | - | 0 W/m² | - |
| 1777538127 | 2.78° C | 98% | 1045.3 hPa | 0 mm | - | 0 W/m² | - |
| 1777537227 | 2.22° C | 98% | 1045.2 hPa | 0 mm | - | 0 W/m² | - |
| 1777536323 | 2.78° C | 98% | 1045.4 hPa | 0 mm | - | 0 W/m² | - |
| 1777535418 | 2.22° C | 98% | 1045.1 hPa | 0 mm | - | 0 W/m² | - |
| 1777534514 | 2.22° C | 97% | 1045.1 hPa | 0 mm | - | 0 W/m² | - |
| 1777533612 | 2.78° C | 97% | 1045.3 hPa | 0 mm | - | 0 W/m² | - |
| 1777532708 | 2.78° C | 97% | 1045.7 hPa | 0 mm | - | 0 W/m² | - |
| 1777531803 | 2.78° C | 97% | 1045.3 hPa | 0 mm | - | 0 W/m² | - |
| 1777530900 | 2.78° C | 97% | 1045.5 hPa | 0 mm | - | 0 W/m² | - |
| 1777529996 | 2.78° C | 97% | 1045.8 hPa | 0 mm | - | 0 W/m² | - |
| 1777529092 | 2.78° C | 97% | 1045.7 hPa | 0 mm | - | 0 W/m² | - |
| 1777528189 | 2.78° C | 97% | 1045.9 hPa | 0 mm | - | 0 W/m² | - |
* Rain latest hour (hover to see other rain measurements)
** Current wind speed in m/s (hover to see current wind gust speed)